sat.trackr.live / text

‹ back to catalog

STARLINK-3090

NORAD 49132 · 2021-082C

PAYLOAD ACTIVE UNKNOWN

§ Identity

Operator
Country
US
Launch date
2021-09-14
Launch site
AFWTR
Launch vehicle
Mass (kg)
RCS (m²)

Purposes: comms

External: N2YO · Heavens-Above · Gunter

§ Orbital elements

Epoch: 2026-05-25T03:29:54.633408Z

Period
96.11 min
Inclination
69.9993°
Eccentricity
0.0003461
Mean motion
14.98332682 rev/d
Perigee alt
569.6 km
Apogee alt
574.5 km
Semi-major
6,950.2 km
B*
-2.6771e-5
RAAN
101.5569°
Arg perigee
262.0800°
Mean anomaly
97.9966°
Rev number
25,743

§ Raw data

STARLINK-30901 49132U 21082C   26145.14577122 -.00000413  00000+0 -26771-4 0  99952 49132  69.9993 101.5569 0003461 262.0800  97.9966 14.98332682257438

JSON: /api/v1/satellites/49132 · /tle

For live sub-satellite position, see the globe view (requires WebGL).

§ Visibility from observer

Set your observer location to see the next 7 days of passes ≥ 10°. The values pass through the URL so the page stays shareable.

No JS? Fill the form by hand. The geolocation button needs JavaScript.